Location: Brno
(49.2000°N, 16.6330°E)
Time: 10:30:37
(UTC+02:00)

ISS - Pass Details

Date: 18 May 2021
Orbit: 417 x 422 km, 51.6° (Epoch: 13 June)

Event Time Altitude Azimuth Distance (km) Brightness Sun altitude
Rises 22:53:27 0° 267° (W) 2,363 0.4 -16.3°
Reaches altitude 10° 22:55:34 10° 271° (W) 1,501 -0.6 -16.5°
Maximum altitude 22:58:54 58° 352° (N) 494 -3.2 -16.8°
Drops below altitude 10° 23:02:14 10° 73° (ENE) 1,506 -1.0 -17.0°
Enters shadow 23:03:32 - 76° (ENE) 2,028 -0.4 -17.1°
